Weather reports worldwide

Advertisment
Brownsville/Int., United States of America (72250): temperature & dewpoint: 03.12.2018 21:00:00 - 09.12.2018 21:00:00 (CST)Brownsville/Int., United States of America (72250): wind speed & gusts: 03.12.2018 21:00:00 - 09.12.2018 21:00:00 (CST)Brownsville/Int., United States of America (72250): wind direction: 03.12.2018 21:00:00 - 09.12.2018 21:00:00 (CST)Brownsville/Int., United States of America (72250): reduced air pressure: 03.12.2018 21:00:00 - 09.12.2018 21:00:00 (CST)Brownsville/Int., United States of America (72250): visibility: 03.12.2018 21:00:00 - 09.12.2018 21:00:00 (CST)Brownsville/Int., United States of America (72250): precipitation: 03.12.2018 21:00:00 - 09.12.2018 21:00:00 (CST)
Date & Time tt [°C] td [°C] ff [km/h] ff [kn] fx [km/h] fx [kn] dd ppp [hPa] vv [km] rr [mm]
09.12.2018 21:00:00 11,1 8,3 9 5 - - N 1027,2 16 -
09.12.2018 20:00:00 11,7 8,3 5 3 - - N 1026,8 16 -
09.12.2018 19:00:00 10,6 8,3 9 5 - - NE 1026,3 16 -
09.12.2018 18:00:00 12,8 8,3 11 6 - - NE 1025,5 16 0,0
09.12.2018 17:00:00 16,7 5,0 11 6 - - N 1024,7 16 -
09.12.2018 16:00:00 17,8 5,0 24 13 - - NNW 1024,4 16 -
09.12.2018 15:00:00 17,8 5,6 22 12 - - NNW 1024,6 16 -
09.12.2018 14:00:00 17,2 6,1 22 12 - - NNW 1025,2 16 -
09.12.2018 13:00:00 16,1 6,7 18 10 - - NNW 1026,2 16 -
09.12.2018 12:00:00 14,4 6,7 21 11 - - NW 1027,5 16 0,0
09.12.2018 11:00:00 12,8 6,1 22 12 - - N 1028,1 16 -
09.12.2018 10:00:00 11,7 6,7 24 13 - - NNW 1028,3 16 -
09.12.2018 09:00:00 10,0 6,7 16 9 - - NNW 1028,1 16 -
09.12.2018 08:00:00 8,3 6,7 13 7 - - NW 1027,6 16 -
09.12.2018 07:00:00 7,8 6,1 11 6 - - NNW 1026,7 16 -
09.12.2018 06:00:00 7,8 6,7 11 6 - - NW 1025,8 16 0,0
09.12.2018 05:00:00 8,3 7,2 13 7 - - NW 1025,3 16 -
09.12.2018 04:00:00 8,9 7,2 13 7 - - NW 1025,2 16 -
09.12.2018 03:00:00 9,4 7,8 13 7 - - NW 1025,1 16 -
09.12.2018 02:00:00 10,0 8,3 13 7 - - NW 1025,3 16 -
09.12.2018 01:00:00 10,0 8,3 16 9 - - NNW 1025,2 16 -
09.12.2018 00:00:00 10,6 8,9 15 8 - - NNW 1025,2 16 0,0
08.12.2018 23:00:00 11,1 9,4 9 5 - - NNW 1025,1 16 -
08.12.2018 22:00:00 12,2 10,6 15 8 - - NNW 1024,5 16 -
08.12.2018 21:00:00 12,2 12,2 15 8 - - NNW 1023,4 16 -
08.12.2018 20:00:00 12,8 12,2 8 4 - - NNW 1022,4 16 -
08.12.2018 19:00:00 13,3 12,8 11 6 - - NNW 1021,4 16 -
08.12.2018 18:00:00 13,9 12,8 15 8 - - NNW 1020,7 16 -
08.12.2018 17:00:00 13,9 12,8 15 8 - - NNW 1020,0 16 -
08.12.2018 16:00:00 13,9 12,8 24 13 - - NNW 1019,7 16 -
08.12.2018 15:00:00 13,9 12,8 18 10 - - NNW 1019,5 16 0,0
08.12.2018 14:00:00 13,3 12,8 18 10 - - NNW 1019,4 16 0,5
08.12.2018 13:00:00 13,3 12,8 22 12 - - N 1020,0 16 0,3
08.12.2018 12:00:00 13,3 12,8 18 10 - - NNW 1020,6 6 0,3
08.12.2018 11:00:00 13,9 12,2 22 12 - - NNW 1021,0 16 -
08.12.2018 10:00:00 14,4 12,8 16 9 - - NNW 1020,7 16 0,0
08.12.2018 09:00:00 13,9 13,3 15 8 - - NW 1020,2 16 0,0
08.12.2018 08:00:00 13,9 13,3 16 9 - - NW 1019,4 16 0,0
08.12.2018 07:00:00 13,9 12,8 8 4 - - W 1018,6 16 0,0
08.12.2018 06:00:00 13,9 12,8 11 6 - - NNW 1017,4 16 -
08.12.2018 05:00:00 13,9 12,8 15 8 - - NNW 1017,4 16 -
08.12.2018 04:00:00 13,9 13,3 15 8 - - NW 1017,2 16 0,0
08.12.2018 03:00:00 14,4 13,3 15 8 - - NNW 1017,2 16 -
08.12.2018 02:00:00 14,4 12,8 26 14 - - NNW 1017,8 10 0,0
08.12.2018 01:00:00 14,4 13,9 24 13 - - NW 1017,9 16 0,0
08.12.2018 00:00:00 15,0 14,4 22 12 - - NW 1018,0 10 -
07.12.2018 23:00:00 16,7 16,1 22 12 - - NW 1017,8 16 0,8
07.12.2018 22:00:00 20,6 19,4 22 12 - - NW 1017,4 16 0,3
07.12.2018 21:00:00 23,3 22,2 16 9 - - S 1016,3 16 -
07.12.2018 20:00:00 23,3 22,2 21 11 - - S 1015,7 16 -
07.12.2018 19:00:00 23,3 21,7 18 10 - - S 1015,1 16 -
07.12.2018 18:00:00 23,3 22,2 24 13 - - S 1014,7 16 -
07.12.2018 17:00:00 24,4 22,2 29 16 - - S 1015,0 16 0,0
07.12.2018 16:00:00 23,9 23,3 28 15 - - S 1015,1 16 0,3
07.12.2018 15:00:00 23,9 23,3 24 13 54 29 S 1015,8 16 0,5
07.12.2018 14:00:00 25,0 23,9 24 13 - - SSE 1016,2 16 2,0
07.12.2018 13:00:00 24,4 23,9 22 12 - - SSE 1017,6 11 0,8
07.12.2018 12:00:00 24,4 23,9 22 12 54 29 S 1018,9 3,2 0,0
07.12.2018 11:00:00 28,3 22,8 34 18 50 27 SE 1019,6 16 -
07.12.2018 10:00:00 26,7 22,8 31 17 - - SSE 1020,5 16 -
07.12.2018 09:00:00 24,4 22,8 22 12 - - SE 1020,4 16 -
07.12.2018 08:00:00 23,3 22,2 16 9 - - SE 1019,9 16 -
07.12.2018 07:00:00 22,8 22,2 11 6 - - ESE 1019,8 16 -
07.12.2018 06:00:00 23,3 22,2 18 10 - - SE 1019,4 16 0,0
07.12.2018 05:00:00 23,3 22,2 18 10 - - ESE 1019,2 16 -
07.12.2018 04:00:00 22,8 22,2 15 8 - - ESE 1019,4 16 -
07.12.2018 03:00:00 22,2 21,7 15 8 - - SE 1019,5 16 -
07.12.2018 02:00:00 22,8 21,7 15 8 - - SE 1020,4 16 -
07.12.2018 01:00:00 23,3 21,1 15 8 - - ESE 1020,6 16 -
07.12.2018 00:00:00 23,3 21,1 18 10 - - ESE 1020,8 16 0,0
06.12.2018 23:00:00 23,3 21,1 18 10 - - SE 1021,1 16 -
06.12.2018 22:00:00 23,3 21,1 15 8 - - SE 1020,8 16 -
06.12.2018 21:00:00 22,8 21,1 15 8 - - SE 1020,5 16 -
06.12.2018 20:00:00 22,2 20,6 15 8 - - ESE 1020,1 16 -
06.12.2018 19:00:00 22,8 20,6 16 9 - - SE 1019,6 16 -
06.12.2018 18:00:00 23,9 20,0 18 10 - - SE 1019,1 16 0,0
06.12.2018 17:00:00 25,6 20,0 26 14 - - SE 1018,6 16 -
06.12.2018 16:00:00 25,6 19,4 28 15 - - SSE 1018,6 16 -
06.12.2018 15:00:00 26,1 19,4 34 18 - - SSE 1018,8 16 -
06.12.2018 14:00:00 26,7 18,9 37 20 50 27 SSE 1019,1 16 -
06.12.2018 13:00:00 26,7 18,9 39 21 48 26 SSE 1019,9 16 -
06.12.2018 12:00:00 25,6 18,9 34 18 52 28 SSE 1021,0 16 0,0
06.12.2018 11:00:00 26,7 18,9 31 17 50 27 SE 1021,4 16 -
06.12.2018 10:00:00 26,1 19,4 29 16 - - SSE 1021,9 16 -
06.12.2018 09:00:00 23,9 18,9 18 10 - - SE 1021,8 16 -
06.12.2018 08:00:00 22,2 18,9 15 8 - - ESE 1021,4 16 -
06.12.2018 07:00:00 21,1 18,9 13 7 - - ESE 1021,0 16 -
06.12.2018 06:00:00 21,1 18,3 15 8 - - ESE 1020,5 16 0,0
06.12.2018 05:00:00 21,7 17,8 15 8 - - SE 1020,6 16 -
06.12.2018 04:00:00 21,1 17,2 15 8 - - ESE 1020,6 16 -
06.12.2018 03:00:00 21,1 16,7 15 8 - - SE 1020,9 16 -
06.12.2018 02:00:00 21,1 16,7 13 7 - - ESE 1021,5 16 -
06.12.2018 01:00:00 21,1 16,1 18 10 - - SE 1022,5 16 -
06.12.2018 00:00:00 20,6 15,6 15 8 - - ESE 1023,0 16 0,0
05.12.2018 23:00:00 20,0 15,6 11 6 - - ESE 1024,1 16 -
05.12.2018 22:00:00 20,0 15,6 5 3 - - SE 1024,6 16 -
05.12.2018 21:00:00 20,6 15,0 11 6 - - E 1024,5 16 -
05.12.2018 20:00:00 20,0 15,0 8 4 - - E 1024,4 16 -
05.12.2018 19:00:00 20,0 15,0 8 4 - - ESE 1024,2 16 -
05.12.2018 18:00:00 20,6 14,4 5 3 - - E 1024,1 16 0,0
05.12.2018 17:00:00 21,1 13,9 15 8 - - ENE 1023,8 16 -
05.12.2018 16:00:00 21,1 13,9 15 8 - - E 1023,8 16 -
05.12.2018 15:00:00 21,7 13,9 26 14 - - E 1023,9 16 -
05.12.2018 14:00:00 21,7 13,9 28 15 - - ENE 1024,1 16 -
05.12.2018 13:00:00 22,2 13,9 18 10 - - ENE 1025,0 16 -
05.12.2018 12:00:00 22,2 13,9 18 10 - - ENE 1026,2 16 0,0
05.12.2018 11:00:00 21,1 14,4 15 8 - - ENE 1027,3 16 -
05.12.2018 10:00:00 20,0 14,4 15 8 - - NE 1027,6 16 -
05.12.2018 09:00:00 19,4 13,9 8 4 - - ENE 1027,4 16 -
05.12.2018 08:00:00 18,9 13,3 9 5 - - NE 1026,7 16 -
05.12.2018 07:00:00 18,9 12,8 11 6 - - ENE 1025,9 16 -
05.12.2018 06:00:00 18,9 13,3 11 6 - - ENE 1025,5 16 0,0
05.12.2018 05:00:00 18,9 13,9 16 9 - - NE 1024,9 16 -
05.12.2018 04:00:00 18,3 13,9 16 9 - - NE 1024,4 16 -
05.12.2018 03:00:00 17,8 14,4 15 8 - - NE 1024,3 16 -
05.12.2018 02:00:00 16,1 14,4 9 5 - - N 1024,6 16 -
05.12.2018 01:00:00 14,4 13,9 9 5 - - NW 1025,1 16 -
05.12.2018 00:00:00 14,4 13,3 11 6 - - NNE 1025,0 16 0,0
04.12.2018 23:00:00 13,9 12,8 9 5 - - NNW 1025,2 16 -
04.12.2018 22:00:00 14,4 13,3 11 6 - - NNW 1024,9 16 -
04.12.2018 21:00:00 15,0 13,3 9 5 - - NNW 1024,4 16 -
04.12.2018 20:00:00 16,1 13,3 8 4 - - NNW 1023,9 16 -
04.12.2018 19:00:00 17,2 13,9 8 4 - - N 1023,4 16 -
04.12.2018 18:00:00 18,3 13,9 15 8 - - NE 1022,8 16 0,0
04.12.2018 17:00:00 20,0 14,4 15 8 - - NNE 1022,4 16 -
04.12.2018 16:00:00 21,1 15,0 22 12 - - NNE 1022,0 16 -
04.12.2018 15:00:00 21,1 15,0 18 10 - - NNE 1022,1 16 -
04.12.2018 14:00:00 21,1 15,0 24 13 - - NNE 1022,2 16 -
04.12.2018 13:00:00 21,7 15,0 24 13 - - NNE 1022,9 16 -
04.12.2018 12:00:00 21,7 15,6 24 13 - - N 1023,6 16 0,0
04.12.2018 11:00:00 22,2 15,6 28 15 - - NNE 1024,1 16 -
04.12.2018 10:00:00 20,6 16,1 15 8 - - N 1024,4 16 -
04.12.2018 09:00:00 17,2 15,0 13 7 - - NNW 1023,8 16 -
04.12.2018 08:00:00 15,6 13,9 13 7 - - NNW 1022,8 16 -
04.12.2018 07:00:00 13,3 12,2 15 8 - - NNW 1022,0 16 -
04.12.2018 06:00:00 13,3 12,2 11 6 - - NNW 1021,0 16 0,0
04.12.2018 05:00:00 13,9 12,8 11 6 - - NNW 1020,5 16 -
04.12.2018 04:00:00 14,4 13,3 11 6 - - NNW 1020,9 16 -
04.12.2018 03:00:00 13,9 13,3 9 5 - - NNW 1020,7 16 -
04.12.2018 02:00:00 14,4 13,3 8 4 - - N 1020,8 16 -
04.12.2018 01:00:00 15,0 13,3 8 4 - - N 1020,9 16 -
04.12.2018 00:00:00 15,6 13,3 8 4 - - NNW 1021,1 16 0,0
03.12.2018 23:00:00 16,1 13,9 9 5 - - NNW 1021,1 16 -
03.12.2018 22:00:00 18,3 15,6 8 4 - - N 1020,8 16 -
03.12.2018 21:00:00 19,4 16,7 13 7 - - N 1020,1 16 -

tt = temperature
td = dewpoint
ff = wind speed
fx = gusts
dd = wind direction
ppp = reduced air pressure
vv = visibility
rr = precipitation

Next stations